Location: Dehesa de la Cepeda
(40.6574°N, 4.3013°W)
Time: 02:53:26
(UTC+00:00)

Courier 1B - Pass Details

Date: 08 August 2021
Orbit: 963 x 1209 km, 28.3° (Epoch: 17 September)

Event Time Altitude Azimuth Distance (km) Brightness Sun altitude
Rises 16:08:03 0° 228° (SW) 3,959 11.4 35.7°
Reaches altitude 10° 16:11:20 10° 215° (SW) 3,038 10.8 35.1°
Maximum altitude 16:17:13 25° 164° (SSE) 2,175 9.5 34.0°
Drops below altitude 10° 16:23:17 10° 113° (ESE) 3,133 9.8 32.8°
Sets 16:26:43 0° 101° (E) 4,107 10.3 32.2°
